Portada
METAR-TAF:

METAR-TAF

Aeroports :

Stuttgart Municipal Airport

Stuttgart, Arkansas, Estats Units d'Amèrica

latitud: 34-36N, longitud: 091-34W, altitud: 68 m

Observació

L'informe es va fer fa 25 minuts, a les 23:56 UTC
Vent calma
Temperatura 19°C
Humitat 73%
Pressió 1016 hPa
Visibilitat: 16.1 km
Núvols disperses a una alçada de 10000 ft

METAR: KSGT 032356Z AUTO 00000KT 10SM SCT100 19/14 A3000 RMK AO2 SLP159 60000 T01940139 10211 20178 53006

Hora: 19:21 (00:21 UTC)


TAF: manca

Observacions i pronòstics meteorològics de més de 4000 aeroports (METAR i TAF).

Les estacions disponibles són els punts grocs i vermells al mapa.

Posi el ratolí al punt desitjat per veure el nom de l'estació.

Feu clic per veure les observacions i els pronòstics meteorològics.

Per canviar el mapa: feu clic els botons verds amb una creu de color negre per apropar; al botó verd amb un guió per allunyar la imatge; o en les fletxes verdes per a mapes adjacents.


METAR-TAF: